Flag for Germany Weather past 2 weeks in Krefeld, North Rhine-Westphalia, Germany

Now
63 °F

Scattered clouds.


Feels Like: 63 °F
Forecast: 46 / 66 °F
Wind: 6 mph from West

Location: Monchengladbach Airport

Current Time: Aug 20, 2014 at 1:08:31 PM

Latest Report: Aug 20, 2014 at 12:20 PM


Visibility: N/A

Pressure: 30.01 "Hg

Humidity: 56%

Dew point: 46 °F

Location of KrefeldLocation

Historic Weather in Krefeld — Graph

°F

Krefeld temperature yesterday

Maximum temperature yesterday: 61 °F (at 1:50 PM)
Minimum temperature yesterday: 54 °F (at 8:20 AM)
Average temperature yesterday: 58 °F

Past Weeks' High & Low Weather Summary

 TemperatureHumidityPressure
High77 °F (Aug 6, 1:20 PM)100% (Aug 8, 4:02 PM)30.12 "Hg (Aug 8, 4:02 PM)
Low50 °F (Aug 20, 7:50 AM)41% (Aug 5, 3:50 PM)29.56 "Hg (Aug 10, 6:20 PM)
Average65 °F72%29.87 "Hg
* Reported Aug 5 11:20 AM — Aug 20 11:50 AM, Krefeld, Weather by CustomWeather, © 2014

Note: Actual official high and low records may vary slightly from our data, if they occured in-between our weather recording intervals... More about our weather records

Advertising

Krefeld weather history for previous 24 hours

 ConditionsComfort  
Time TempWeatherWind HumidityBarometerVisibility
11:50 AM
Aug 20
63 °FPassing clouds.5 mph59%30.01 "HgN/A
11:20 AM61 °FSunny.5 mph63%30.01 "Hg10 mi
10:50 AM61 °FSunny.5 mph63%30.01 "Hg10 mi
10:20 AM59 °FPassing clouds.5 mph68%30.01 "HgN/A
9:50 AM57 °FPassing clouds.5 mph72%30.01 "HgN/A
9:20 AM55 °FPassing clouds.5 mph77%30.01 "HgN/A
8:50 AM54 °FSunny.3 mph82%30.01 "Hg10 mi
8:20 AM54 °FSunny.3 mph82%30.01 "Hg10 mi
7:50 AM50 °FSunny.3 mph88%30.01 "Hg10 mi
8:20 PM
Aug 19
57 °FClear.8 mph72%29.92 "Hg10 mi
7:50 PM59 °FPassing clouds.10 mph68%29.89 "HgN/A
7:20 PM59 °FPassing clouds.10 mph63%29.89 "HgN/A
6:50 PM61 °FPassing clouds.10 mph59%29.89 "HgN/A
6:20 PM59 °FPassing clouds.9 mph63%29.89 "HgN/A
5:50 PM59 °FSprinkles. Passing clouds.10 mph59%29.89 "HgN/A
5:20 PM59 °FPassing clouds.10 mph63%29.86 "HgN/A
4:50 PM61 °FPassing clouds.10 mph68%29.86 "HgN/A
4:20 PM61 °FPassing clouds.10 mph68%29.86 "HgN/A
3:50 PM55 °FRain showers. Passing clouds.16 mph77%29.86 "HgN/A
3:20 PM61 °FPassing clouds.12 mph59%29.83 "HgN/A
2:50 PM61 °FPassing clouds.9 mph68%29.83 "HgN/A
2:20 PM61 °FPartly cloudy.12 mph63%29.83 "HgN/A
1:50 PM61 °FPassing clouds.12 mph68%29.83 "HgN/A
1:20 PM59 °FPartly cloudy.13 mph72%29.83 "HgN/A
Weather by CustomWeather, © 2014

See weather overviewHow to use our weather pages